Weather Roundup
Issued by NWS

Home | Current Version | Previous Version | Graphics & Text | Print | Product List | Glossary Off
Versions: 1 2 3 4 5 6 7 8 9 10 11 12 13 14 15 16 17 18 19 20 21 22 23 24 25 26 27 28 29 30 31 32 33 34 35 36 37 38 39 40 41 42 43 44 45 46 47 48 49 50

000
NZUS93 KARX 262059
HRRWXR

CURRENT HOURLY OBSERVATIONS ACROSS
MUCH OF THE UPPER MISSISSIPPI VALLEY
NATIONAL WEATHER SERVICE LA CROSSE WI
400 PM CDT TUE MAY 26 2015


...SOUTHEAST MINNESOTA...


CITY           SKY/WX    TMP DP  RH WIND       PRES   REMARKS
ROCHESTER      LGT RAIN  62  59  90 NW14      29.75S
ROCHESTER/MAYO CLOUDY    61  61 100 NW14      29.73F
WINONA         HVY RAIN  61  59  94 NW14      29.68F
AUSTIN         LGT RAIN  63  59  88 NW7       29.75F
ALBERT LEA     DRIZZLE   63  61  94 NW6       29.76F
DODGE CENTER   LGT RAIN  63  61  94 NW10      29.76S
PRESTON        LGT RAIN  60  58  94 NW14      29.72S
OWATONNA       LGT RAIN  63  59  88 W9        29.77S
FARIBAULT      RAIN      61  61 100 NW5       29.77S
$$

...ELSEWHERE IN MINNESOTA...


CITY           SKY/WX    TMP DP  RH WIND       PRES   REMARKS
MINNEAPOLIS    RAIN      58  57  97 NW9       29.78S FOG
INTNL FALLS    PTSUNNY   75  50  41 VRB6      29.77F
DULUTH         CLOUDY    64  52  64 NE15G21   29.80F
RED WING       HVY RAIN  63  61  94 W7        29.73S
REDWOOD FALLS  CLOUDY    58  56  93 NW3       29.81S
MANKATO        CLOUDY    57  55  94 N12       29.78F
WORTHINGTON    CLOUDY    57  52  82 NW12      29.83S
FAIRMONT       CLOUDY    59  54  82 NW10      29.79S
$$

...SOUTHWEST WISCONSIN...


CITY           SKY/WX    TMP DP  RH WIND       PRES   REMARKS
LA CROSSE      LGT RAIN  66  62  87 CALM      29.62F FOG
PRAIRIE DU CHI CLOUDY    67  66  95 S7        29.64S
BOSCOBEL       LGT RAIN  70  63  78 S12G17    29.64F
LONE ROCK      NOT AVBL
PLATTEVILLE    CLOUDY    68  66  94 SW12G17   29.66F
FORT MC COY    CLOUDY    66  61  83 E9        29.66F
CAMP DOUGLAS   CLOUDY    65  65 100 E5        29.65F
VIROQUA        CLOUDY    66  66 100 SE8       29.65F
WIS DELLS      PTSUNNY   70  65  83 SW12      29.65F
$$

...ELSEWHERE IN WISCONSIN...


CITY           SKY/WX    TMP DP  RH WIND       PRES   REMARKS
MILWAUKEE      PTSUNNY   74  63  68 SW20G28   29.71F
MADISON        PTSUNNY   76  62  62 S16G25    29.65F
GREEN BAY      HVY RAIN  66  64  93 SE15      29.71F VSB 1
EAU CLAIRE     CLOUDY    65  59  81 N8        29.70F
BLACK RVR FLS  CLOUDY    68  60  74 NE8       29.65F
MEDFORD        LGT RAIN  64  62  94 NE8       29.71F
WAUSAU         CLOUDY    64  61  90 NE7       29.68F
WIS RAPIDS     LGT RAIN  65  60  84 NE9       29.67F
MARSHFIELD     CLOUDY    67  60  78 NE9       29.68F
RICE LAKE      DRIZZLE   63  60  88 N13       29.75F
$$

...NORTHEAST IOWA...


CITY           SKY/WX    TMP DP  RH WIND       PRES   REMARKS
DECORAH        LGT RAIN  61  61 100 W10G20    29.68R
MASON CITY     LGT RAIN  66  60  81 W15       29.78S
CHARLES CITY   DRIZZLE   63  63 100 NW14      29.76R
OELWEIN        DRIZZLE   63  61  94 W21       29.75R
$$

...ELSEWHERE IN IOWA...


CITY           SKY/WX    TMP DP  RH WIND       PRES   REMARKS
DES MOINES     PTSUNNY   70  61  73 SW13      29.79F
IOWA CITY      CLOUDY    70  60  70 W17G26    29.79R
FORT DODGE     PTSUNNY   66  59  77 SW5       29.80S
$$

...NORTHERN ILLINOIS...


CITY           SKY/WX    TMP DP  RH WIND       PRES   REMARKS
CHICAGO-OHARE  PTSUNNY   73  63  70 S17       29.76F
CHICAGO-MIDWAY PTSUNNY   77  65  66 SW14      29.77F
MOLINE         PTSUNNY   73  59  61 SW18G33   29.77R
ROCKFORD       MOSUNNY   74  62  66 S22G29    29.74S
PEORIA         CLOUDY    75  61  61 SW17G26   29.83R
$$

NOTE: "FAIR" INDICATES FEW OR NO CLOUDS BELOW 12,000 FEET WITH NO
SIGNIFICANT WEATHER AND/OR OBSTRUCTIONS TO VISIBILITY. WIND
SPEEDS ARE IN MILES-PER-HOUR.



USA.gov is the U.S. government's official web portal to all federal, state and local government web resources and services.